RH
20 27 26 27 24 18 7 4 4 6 11 16 22 31 58 63 56 36 56 85 98 95 95 83 98 96 81 77 75 64 59 51 89 77 69 72 72 63 58 63 61 59 57 61 61 62 65 64 59
25 31 30 30 20 9 4 4 6 14 16 23 34 45 51 56 67 66 68 66 95 94 90 92 93 81 62 59 53 56 59 64 81 90 81 70 74 68 61 62 66 58 57 59 55 60 57 62 62
32 36 36 28 14 5 5 4 10 18 29 32 42 44 37 53 62 63 84 79 73 91 92 92 80 64 76 72 84 63 82 80 81 95 94 67 68 68 81 66 67 66 61 59 63 51 46 57 66
37 41 36 22 10 5 5 6 11 23 27 27 41 44 43 41 54 52 60 71 71 87 99 97 97 88 75 75 65 63 95 97 91 94 95 78 70 75 79 78 71 61 60 51 56 43 44 43 46
42 46 38 19 7 6 6 9 23 28 31 37 39 45 56 69 48 40 55 61 57 74 80 72 52 62 66 66 56 68 90 91 79 87 97 76 73 81 76 81 91 79 73 74 55 50 46 56 60
48 47 38 17 6 5 5 10 21 26 21 28 30 29 31 37 58 56 31 37 51 72 64 68 51 54 50 55 60 80 91 73 81 89 90 71 67 79 83 91 87 84 73 73 69 61 58 70 72
49 50 37 15 6 5 8 13 13 27 36 44 51 54 59 69 74 58 40 30 29 41 56 59 35 46 60 63 70 86 94 96 95 96 89 71 61 73 89 88 89 95 84 75 70 60 66 69 76
51 54 36 13 5 6 8 13 13 25 35 40 63 73 69 52 55 59 76 79 50 47 63 37 49 94 93 72 63 86 94 97 96 93 93 77 61 70 77 88 84 83 78 70 65 62 68 83 82
54 55 36 13 5 6 8 16 12 12 25 34 48 62 58 48 50 53 54 64 89 77 94 95 93 94 92 88 91 95 97 95 97 95 96 97 92 70 64 81 80 71 83 95 97 95 94 90 96
55 55 42 14 5 6 12 13 13 16 46 58 56 49 44 39 41 46 55 92 92 96 97 96 98 98 96 96 97 96 96 96 95 96 95 94 93 71 64 88 75 65 78 93 94 94 95 100 97
56 59 46 16 6 9 20 15 24 34 65 59 46 44 40 38 36 43 46 73 96 97 99 98 97 97 96 96 96 95 88 97 93 98 96 95 95 80 82 93 77 74 72 98 97 97 95 100 97
61 60 52 20 7 8 20 24 33 39 66 54 56 57 38 34 37 37 44 68 92 97 97 96 96 97 95 96 96 94 90 93 98 95 97 95 95 90 90 69 87 80 71 100 95 93 96 98 99
61 65 58 32 8 7 32 33 29 37 54 61 65 40 34 39 38 36 44 53 69 86 93 96 95 96 97 97 93 93 96 96 96 97 96 96 97 97 85 83 95 97 95 100 90 94 96 99 98
72 70 72 43 8 8 41 40 38 41 55 63 34 30 39 65 57 38 44 40 42 74 72 96 97 95 93 94 95 94 97 95 95 97 97 97 95 90 90 97 98 99 93 86 82 98 96 92 90
82 80 82 48 10 12 24 35 50 44 53 34 27 33 42 58 80 49 36 28 47 69 74 63 79 96 98 97 96 86 83 78 78 96 97 98 100 99 92 92 98 100 99 92 89 95 96 100 91
94 92 81 28 13 12 17 34 46 45 43 30 32 32 39 47 54 72 55 31 39 38 50 90 95 94 88 71 88 93 92 94 93 81 96 97 96 95 95 97 97 99 95 92 92 95 98 87 74
98 89 53 24 14 13 20 50 49 42 46 47 31 33 40 49 36 30 44 61 46 37 45 71 42 44 55 55 77 90 90 95 98 92 90 95 95 97 100 99 93 96 97 94 95 94 77 67 77
95 74 38 27 18 18 26 36 52 38 46 53 42 30 34 36 38 31 28 42 54 48 46 41 42 42 88 48 42 59 92 96 91 98 98 99 97 99 100 99 96 98 98 98 94 83 87 95 96
76 75 51 25 22 18 34 57 61 41 30 53 47 22 23 34 40 34 32 32 64 58 68 70 59 74 58 44 58 62 80 81 78 100 98 100 97 96 97 94 96 97 99 94 90 98 97 94 82
73 75 59 25 23 14 28 34 40 36 35 50 55 29 24 18 39 33 16 36 62 87 85 71 62 54 64 64 69 58 72 97 81 93 87 97 96 97 92 97 96 98 95 99 100 96 84 77 51
79 72 54 26 24 14 14 16 38 35 37 57 47 23 23 16 30 48 18 13 38 65 70 72 78 75 66 79 75 65 72 79 79 82 92 99 98 96 98 97 100 97 99 100 96 92 68 48 28
86 83 57 30 20 16 16 10 28 33 47 57 37 26 26 17 15 11 21 12 17 41 47 37 37 34 54 71 98 92 91 94 94 96 97 96 88 90 78 85 93 98 96 98 100 93 99 97 92
93 91 75 42 26 18 13 11 22 28 40 54 49 37 26 26 19 28 18 13 12 10 15 28 25 23 28 31 32 39 38 35 36 49 56 56 59 80 82 80 70 78 81 93 86 78 78 82 92
97 89 74 58 39 26 19 11 16 23 49 43 50 50 41 39 27 30 34 28 11 10 10 10 10 11 18 18 24 30 32 33 35 37 37 42 51 57 52 56 58 62 57 66 64 78 95 97 100
72 91 84 63 53 42 28 16 19 16 38 38 41 37 21 26 31 31 26 31 39 40 33 24 14 11 11 14 22 29 27 24 34 31 46 47 52 50 50 68 86 88 89 91 89 100 98 99 99
82 97 100 81 63 53 29 18 24 20 20 34 49 30 24 23 32 34 33 40 30 34 39 43 46 33 22 22 21 18 18 29 40 61 70 58 66 67 68 77 67 61 63 72 89 100 99 82 88
92 90 100 90 83 78 52 19 13 21 28 39 40 41 41 36 32 32 34 36 34 36 38 35 40 42 40 32 28 26 22 21 24 31 42 62 67 65 66 66 65 72 86 70 67 88 100 97 78
99 100 97 88 77 75 57 32 18 27 31 40 52 46 44 47 47 43 34 32 34 44 46 49 58 60 56 48 44 38 32 27 25 21 28 30 62 67 66 80 88 76 66 85 76 68 83 96 83
100 94 89 84 81 71 61 46 22 27 24 45 50 54 44 50 48 48 31 28 29 33 39 42 52 71 82 84 90 90 77 95 66 41 31 68 58 64 97 95 96 97 96 98 96 99 95 96 98
98 95 100 100 90 87 69 44 38 36 36 52 62 49 45 49 39 48 33 29 26 28 26 28 50 51 64 81 88 94 99 96 98 92 97 96 100 100 97 92 96 97 98 96 98 98 98 100 99
Wind_Speed
31 29 31 35 35 36 37 32 29 32 30 27 24 18 15 17 19 22 26 29 42 36 41 39 40 31 34 29 35 39 40 38 31 24 25 18 15 14 15 14 14 13 13 14 17 16 15 15 13
29 28 31 34 34 35 32 27 24 22 20 21 20 14 17 17 16 18 21 29 24 28 44 39 29 30 33 35 36 38 32 32 34 29 25 19 15 14 14 15 15 11 16 15 14 15 18 18 18
26 28 30 31 35 32 23 18 14 14 16 19 18 21 18 17 14 19 16 17 25 27 24 28 32 30 31 33 32 31 29 27 33 26 26 22 19 16 16 16 15 13 13 13 12 17 19 21 19
24 28 29 31 35 28 18 13 14 13 17 18 17 17 20 21 17 21 26 19 23 25 26 20 21 26 30 31 33 34 23 21 29 31 27 26 23 18 18 15 13 13 13 14 15 18 17 18 20
26 26 29 32 33 23 15 15 18 16 19 19 20 18 19 21 19 25 22 23 25 25 23 32 34 34 30 29 31 31 37 28 31 38 36 27 23 20 21 17 16 13 17 16 21 20 20 20 20
23 25 29 32 31 24 18 17 16 17 17 17 19 22 20 25 27 26 23 24 22 27 24 23 25 32 34 30 29 32 33 31 20 39 43 32 26 24 22 18 15 14 17 22 21 22 20 17 17
21 25 29 31 30 24 15 14 17 11 10 12 19 22 25 23 21 24 24 26 27 27 30 31 31 35 33 31 31 32 26 35 30 37 40 34 28 27 21 18 17 17 18 20 21 20 19 19 18
21 24 28 29 25 21 17 15 16 11 8 13 20 20 21 22 18 19 21 22 28 29 29 33 32 30 26 29 33 31 34 37 27 36 40 33 32 29 23 20 19 20 19 18 21 22 21 21 21
21 25 26 28 24 22 19 16 19 14 10 15 22 19 22 24 24 21 22 21 25 30 37 31 35 34 27 28 29 18 13 33 29 37 37 31 34 27 24 23 19 19 18 20 19 22 25 24 23
20 24 26 27 23 20 16 16 16 12 12 15 11 15 20 25 23 19 14 16 17 12 17 21 28 37 29 27 27 29 22 13 21 32 43 38 30 29 26 25 21 21 22 24 24 23 26 26 25
20 24 24 27 22 16 13 17 14 9 10 9 11 17 22 23 23 18 11 10 4 5 9 15 22 24 34 26 15 11 16 21 23 23 42 39 39 27 28 25 24 23 25 23 26 26 25 28 27
20 23 25 24 22 15 10 16 10 13 10 13 14 16 23 24 22 13 9 8 10 2 13 15 21 18 25 24 20 22 20 17 28 31 41 37 32 27 25 22 25 30 30 27 25 26 26 23 26
21 24 22 26 21 15 10 15 9 15 12 13 11 16 21 20 16 11 7 7 9 7 9 7 10 23 10 11 15 23 23 16 19 28 29 32 29 29 27 25 18 23 30 29 26 23 19 22 24
25 23 24 27 20 14 11 11 7 11 8 10 6 14 20 19 16 11 4 8 10 10 9 16 13 17 13 11 11 14 18 18 20 24 27 32 26 26 31 26 26 24 28 30 26 23 20 26 31
26 25 26 26 20 18 14 12 11 7 8 8 8 12 16 17 14 6 5 8 11 15 14 16 18 17 12 14 16 16 16 13 12 23 30 26 24 24 22 24 21 25 27 29 26 22 21 25 23
25 27 26 24 19 18 15 13 9 6 7 5 8 9 10 12 12 9 5 10 12 16 16 18 20 12 14 15 17 17 18 18 12 17 24 22 17 22 24 19 18 22 24 25 25 21 24 23 25
23 22 25 24 18 15 16 13 12 9 6 8 8 8 7 8 10 10 9 9 14 16 17 19 16 17 18 16 18 21 20 21 20 21 26 24 20 21 22 23 23 26 25 23 23 21 21 24 27
26 23 26 23 19 15 16 16 14 13 8 5 8 9 8 7 8 10 10 11 8 14 18 17 15 18 20 16 16 20 23 24 19 21 22 25 22 22 24 25 27 29 24 23 24 23 24 24 24
28 24 25 20 23 18 15 19 19 18 10 8 9 9 11 7 5 10 12 14 4 9 13 19 22 19 17 17 19 19 22 21 26 24 23 28 26 25 25 24 25 25 20 19 16 20 24 23 23
27 24 23 20 23 23 18 17 19 18 11 8 12 8 8 9 5 6 8 9 12 3 9 12 17 23 23 20 21 21 27 26 27 29 27 32 33 29 27 25 23 22 18 22 24 22 21 22 26
25 22 23 21 27 25 19 13 16 15 12 6 8 6 6 7 6 6 6 6 7 7 6 5 4 8 12 23 25 24 26 30 33 31 26 30 31 25 28 26 24 27 26 24 21 20 22 24 25
20 22 24 26 28 26 21 10 18 16 13 11 6 4 4 5 6 5 7 2 1 4 4 5 4 4 2 6 6 15 22 17 22 23 25 24 20 20 22 24 24 26 24 19 18 23 26 26 27
15 28 28 29 28 24 17 13 16 19 15 13 9 8 5 5 3 1 3 4 3 3 5 5 5 5 5 7 8 11 15 14 15 15 16 19 20 20 22 22 22 22 20 20 25 27 27 28 29
26 32 31 30 30 22 17 13 7 13 17 19 11 13 9 6 5 2 2 4 5 5 4 3 3 4 5 6 8 10 11 13 12 13 14 16 17 19 22 22 21 20 18 22 26 25 25 29 33
28 29 33 32 29 21 22 18 5 12 18 14 12 10 11 10 11 8 5 4 5 6 6 6 6 6 6 6 6 7 9 10 11 13 14 13 17 21 21 18 17 17 16 17 17 19 27 30 36
30 29 34 32 34 27 28 24 7 11 14 13 13 13 10 8 11 9 9 7 6 6 7 8 8 9 9 9 8 10 12 13 13 15 16 16 17 16 17 18 18 20 19 21 21 24 25 22 27
34 36 28 33 34 31 33 24 15 14 12 14 16 16 12 13 13 14 13 12 10 10 9 9 9 11 12 11 9 10 10 12 15 17 17 16 17 17 19 21 23 24 25 25 24 26 29 30 29
40 35 34 35 35 33 32 27 19 17 15 15 16 20 18 18 16 16 15 16 15 14 11 10 11 12 12 12 12 13 14 14 16 16 19 19 20 21 22 23 25 28 31 31 31 29 32 32 32
41 39 36 33 36 35 34 29 18 24 20 17 17 20 16 18 19 18 15 14 14 13 12 11 12 15 15 15 17 18 19 22 23 25 25 22 25 25 27 32 29 36 41 35 35 35 33 34 34
40 41 40 41 38 36 36 29 19 22 25 21 15 19 18 19 20 21 15 11 14 17 16 15 17 18 18 20 21 22 24 25 27 25 26 30 33 34 39 38 39 37 42 31 28 35 31 32 36
Wind_Direction
310 311 312 311 310 309 306 305 310 316 316 316 309 293 296 292 274 261 248 232 238 247 238 236 243 255 257 272 260 254 253 249 251 220 199 207 215 236 249 261 264 276 277 278 282 282 278 284 284
311 311 313 310 307 306 308 315 324 322 320 314 307 280 280 272 248 259 260 244 251 258 242 237 267 259 259 258 257 259 254 248 239 210 210 206 216 232 248 257 263 265 267 267 274 279 280 277 271
311 313 311 309 307 307 308 325 326 320 306 297 282 268 275 253 251 267 265 256 256 255 263 246 255 253 246 255 261 267 258 240 222 230 200 210 213 225 242 246 249 252 259 259 260 268 268 265 266
314 312 308 309 309 309 309 319 313 294 284 282 290 282 273 285 276 263 264 254 239 256 243 263 258 273 264 272 276 269 247 231 237 218 222 206 213 220 234 238 242 241 247 250 262 262 266 270 271
314 308 307 307 311 305 307 299 292 283 284 286 292 299 304 298 279 275 262 270 242 248 249 250 249 258 260 266 266 276 261 257 267 218 207 206 208 215 231 232 243 253 248 252 265 268 263 264 267
310 305 306 308 313 300 296 301 286 286 296 311 310 306 301 294 287 275 261 265 255 253 251 253 248 250 253 257 257 266 260 262 233 206 220 226 211 217 225 234 239 246 253 264 266 266 270 272 277
306 304 305 315 311 302 300 303 307 296 314 321 315 306 305 297 289 281 276 262 255 250 255 258 255 256 254 256 252 262 252 251 244 218 213 209 211 220 225 239 236 252 257 266 269 273 277 275 274
302 302 307 315 313 302 305 322 310 280 305 319 332 321 310 306 307 278 285 284 266 259 255 250 252 253 254 252 250 249 248 229 213 206 215 209 214 220 225 238 242 254 259 262 270 273 272 269 269
297 301 308 318 319 315 322 312 306 291 320 325 317 308 316 316 309 301 287 284 272 255 256 247 243 246 246 250 241 236 210 208 222 218 207 219 209 221 229 241 241 254 255 266 279 302 282 272 255
293 302 305 318 322 325 328 304 300 312 334 322 340 323 313 316 315 310 309 292 284 269 249 237 245 231 210 230 205 227 226 225 215 238 215 208 216 232 235 239 240 247 249 254 271 285 279 275 253
293 299 307 319 323 326 321 307 286 309 324 331 331 326 321 324 314 311 311 298 318 59 198 237 223 226 180 193 218 237 219 215 226 229 200 219 230 223 235 240 237 248 250 264 265 281 267 264 247
293 293 304 312 312 303 303 290 305 306 294 299 307 322 325 320 315 311 298 268 271 77 139 161 157 180 203 222 238 226 233 203 214 215 209 219 208 232 227 232 249 247 252 273 251 263 260 255 242
287 288 300 304 306 298 272 279 300 301 308 301 311 326 329 322 331 325 287 238 231 214 181 183 204 197 202 195 206 201 197 179 186 213 215 223 205 222 224 225 244 244 244 248 253 264 246 228 217
278 284 295 302 306 274 246 272 286 293 295 293 342 334 335 343 339 315 237 222 187 195 198 204 199 207 232 181 179 182 156 171 178 183 197 205 217 226 231 235 243 245 244 250 259 253 235 219 212
280 289 284 294 297 259 246 270 286 306 301 309 347 345 347 347 344 336 198 212 218 195 205 213 200 198 185 155 160 178 144 161 185 195 198 207 217 220 224 218 244 244 246 255 256 247 233 205 208
279 287 273 287 299 269 258 255 270 279 274 328 328 332 356 350 356 335 266 234 219 215 222 208 199 177 216 201 198 188 187 199 195 208 203 205 217 225 219 229 233 247 255 249 242 237 213 202 215
276 274 275 287 300 289 262 254 268 271 257 311 317 312 333 338 348 357 330 272 243 231 225 222 223 225 219 207 205 200 207 213 215 201 204 223 225 219 222 225 236 247 248 233 235 221 211 213 216
261 261 270 286 293 284 256 257 266 274 271 285 307 285 293 321 338 326 339 330 245 229 230 222 225 229 220 226 219 229 237 225 234 222 224 220 222 219 226 237 239 237 231 228 230 217 219 219 229
260 265 266 283 283 288 268 269 266 255 252 273 288 287 283 297 305 313 326 1 18 194 217 217 214 215 226 223 227 235 258 246 246 213 223 226 225 222 233 246 232 224 215 212 213 222 224 227 233
264 264 264 272 275 285 274 270 275 245 240 266 266 276 271 282 269 311 341 11 35 81 202 213 218 221 223 231 230 228 230 230 231 233 234 229 224 226 233 240 216 205 208 212 218 230 235 237 238
266 265 261 267 269 279 289 285 266 234 235 229 252 263 266 279 288 296 335 350 49 51 94 115 203 234 227 230 237 235 237 238 236 233 229 231 225 223 218 217 209 205 208 217 223 237 245 247 247
267 265 260 263 264 277 286 303 246 224 216 209 224 241 265 274 286 303 291 318 133 117 79 76 82 68 100 151 181 222 229 219 218 215 220 217 196 195 206 195 195 199 209 223 236 247 250 255 259
248 254 250 253 263 272 290 291 211 227 210 202 213 235 242 253 260 1 291 262 185 169 174 170 165 172 177 148 153 159 171 180 179 179 184 186 188 183 199 202 203 213 221 230 242 249 254 261 265
237 251 251 251 258 267 281 266 225 217 207 228 239 239 232 242 217 223 298 242 202 192 205 208 197 182 188 197 194 190 181 184 186 192 195 195 199 201 209 209 214 225 232 240 247 254 259 261 264
245 258 252 256 262 273 271 267 205 211 211 228 231 224 223 219 210 224 238 243 218 198 187 219 242 244 240 232 225 216 216 211 207 212 217 221 213 213 213 211 213 219 226 235 244 256 251 260 260
249 255 247 255 265 271 267 257 206 229 223 230 217 221 238 240 208 219 212 225 228 221 212 209 210 224 229 233 238 238 236 236 238 227 223 216 218 225 226 224 231 237 235 238 248 254 261 264 260
242 248 253 249 257 262 259 260 250 233 218 225 229 214 219 234 237 241 235 234 238 232 240 244 234 230 233 241 244 247 255 248 239 241 237 238 246 244 239 240 243 246 251 255 255 256 257 262 259
236 243 241 246 255 261 259 256 256 239 225 212 238 227 233 234 228 250 245 244 246 245 249 248 248 248 255 267 271 269 262 264 262 257 248 250 247 252 255 254 254 258 254 254 254 253 257 260 266
233 238 243 248 251 258 262 258 234 246 230 219 227 231 233 239 264 254 235 246 247 250 254 251 249 250 252 258 258 256 252 273 264 265 258 248 254 259 262 267 264 271 273 263 258 250 261 259 265
234 233 236 246 248 258 259 261 247 243 248 229 228 230 244 256 259 244 235 253 272 262 254 261 261 263 262 264 260 263 266 273 257 272 253 258 264 265 262 257 267 252 256 251 262 250 262 263 266